Dewpoint
-4 -2 0 -3 -1 2 1 3 2 2 3 4 3 3 2 0 -6 -9 -10 -8 -1 -1 -8 -12 -6 -6 -4 -4 -6 -7 -7 -6 -6 -7 -2 1 7 5 5 9 9 12 12 12 11
-22 -19 -18 -16 -13 -6 -1 -2 -2 -4 -4 -2 0 -0 -3 -0 -4 -8 -8 -5 -0 -2 -10 -9 -6 -6 -5 -6 -6 -8 -6 -7 -8 -7 -6 3 5 6 6 6 8 11 11 11 11
-24 -26 -28 -26 -23 -17 -10 -8 -6 -7 -7 -8 -7 -6 -6 -3 -5 0 -3 -5 -4 -5 -13 -3 -5 -8 -8 -7 -7 -8 -7 -9 -9 -7 -6 -6 4 6 6 7 8 9 11 11 11
-19 -25 -27 -28 -28 -28 -29 -30 -25 -16 -10 -8 -8 -9 -11 -3 2 -1 -3 -4 -4 -7 -14 -6 -9 -9 -9 -8 -10 -8 -10 -10 -8 -5 -5 1 5 8 9 11 11 11 10 10 10
-6 -16 -23 -27 -29 -30 -31 -32 -31 -24 -15 -11 -9 -7 -11 2 -1 -5 -1 -5 -8 -8 -14 -10 -9 -9 -7 -8 -6 -8 -9 -8 -8 -7 -4 3 8 9 10 9 10 10 10 11 10
3 -3 -14 -22 -28 -28 -30 -31 -32 -32 -27 -14 -8 -9 -1 5 -8 -2 -3 -5 -10 -9 -16 -6 -7 -10 -6 -4 -4 -6 -7 -7 -7 -7 -2 4 5 4 9 10 10 10 11 10 10
2 3 -0 -9 -22 -28 -28 -30 -32 -32 -24 -15 -9 -2 -0 -11 -11 -2 -0 0 -6 -9 -7 -6 -6 -6 -5 -3 -4 -4 -5 -7 -8 -3 1 3 4 4 5 6 9 10 9 9 9
2 2 3 1 -14 -23 -27 -29 -31 -31 -23 -16 -9 1 2 -26 -3 -10 -4 -1 -1 -5 -5 -6 -5 -5 -5 -4 -4 -3 -4 -3 -7 -1 2 1 5 4 3 5 7 7 8 8 9
1 2 2 2 0 -13 -23 -29 -31 -30 -15 1 -1 2 4 -5 -7 -13 -6 -3 -1 -4 -5 -6 -5 -5 -4 -3 -2 -3 -2 -4 -3 -1 2 3 6 4 3 5 6 6 8 9 9
-2 -1 1 1 2 -1 -17 -27 -32 -28 -9 6 4 6 -2 -8 -7 -6 -8 -5 -1 -5 -6 -4 -4 -3 -4 -2 1 -0 -2 -3 -0 1 3 5 5 4 3 6 5 7 8 9 9
-0 -1 -2 -0 1 2 -10 -21 -5 4 6 6 3 -5 -5 -5 -2 -6 -7 -4 -2 -4 -3 -4 -2 -1 -3 -4 -3 -4 -4 -4 -0 0 2 6 6 4 3 6 5 7 6 9 9
-1 -0 -1 -2 1 2 -3 -9 -8 1 3 3 3 4 3 -2 -1 -3 -7 -6 -1 -0 -3 -2 -1 -3 -5 -5 -4 -2 -3 -5 -3 -1 1 1 6 4 5 7 4 3 6 7 9
-0 -2 -1 -1 0 0 -3 -8 -17 -4 3 -1 -3 -3 -10 -13 -7 -6 -4 -7 -0 0 -1 -1 -2 -4 -4 -2 -2 -3 -5 -5 -4 -2 -3 -3 -0 6 6 7 4 2 1 3 7
1 -1 -3 -1 -1 3 2 5 1 2 6 -1 -9 -7 -7 -9 -5 -9 -4 -7 -1 0 -1 -1 -4 -3 -3 -2 -3 -3 -6 -4 -1 -1 1 -3 2 7 7 7 5 3 2 3 6
1 1 -2 -2 1 2 4 6 5 5 -5 -11 -11 -14 -11 -8 -6 -5 -8 -6 -3 -2 -2 -1 -2 -2 -1 -2 -3 -2 -3 -3 -1 1 -1 -1 2 1 5 7 6 5 4 4 5
-1 -0 0 -1 -2 -2 2 5 5 5 6 -9 -3 -3 -2 -7 -6 -5 -6 -6 -6 -3 -3 -3 -5 -4 -3 -3 -4 -6 -1 -1 0 1 3 0 1 0 4 1 4 4 5 4 4
-0 -1 0 -1 -2 -1 2 3 6 5 -14 -16 -1 -2 -1 -1 -3 -4 -4 -4 -3 1 1 -1 -3 -4 -5 -2 -4 -4 -1 4 4 5 5 5 5 1 -1 -1 2 1 4 4 3
1 -0 0 -0 -3 -1 3 4 5 -8 -6 -10 -11 -7 0 -2 -1 -1 -2 -1 -5 -2 0 1 2 -3 -4 -3 -3 -2 -1 5 6 8 8 6 7 1 -2 -3 -4 -2 3 4 3
1 1 1 0 -3 0 3 4 0 -5 -11 -15 -15 -11 -0 -0 -1 -1 -1 -1 -3 -5 -0 1 0 -4 -5 -5 -4 -1 1 0 9 8 9 8 6 2 -2 -3 -8 -7 -5 2 3
2 1 1 -0 -1 -0 3 3 0 -3 -8 -10 -8 -8 -5 -1 1 0 -0 -3 -2 -5 -4 -1 2 -2 -3 -5 -4 -3 -2 3 7 10 11 8 7 4 -1 -1 -5 -7 -7 -5 -0
2 2 1 -0 1 1 2 2 -1 -3 -3 -4 -8 -7 -7 -5 -6 -2 -0 -3 -4 -4 -4 -3 -1 1 -1 -0 -1 -1 -1 -0 5 6 7 6 4 2 1 0 -2 -4 -4 -3 -3
2 2 0 -0 2 1 1 -0 -2 -5 -4 -3 -3 -5 -5 -4 -4 -4 3 1 -4 -3 -2 -3 0 1 0 -2 -2 -2 -2 0 6 6 6 6 5 -1 -1 -1 -4 -5 -6 -5 -3
1 1 1 -1 2 1 -1 -0 -2 -1 -2 -3 -2 -4 -5 -4 -3 -0 2 2 2 0 -3 -3 -1 2 2 -1 -1 -1 -2 -2 0 4 6 7 6 -1 -2 -2 -3 -5 -6 -5 -5
1 1 2 2 -1 -0 -0 -0 1 -2 -1 -2 -4 -4 -5 -4 -5 2 3 3 2 4 3 -2 -1 -0 2 1 1 2 0 -1 -1 5 4 6 4 2 0 -0 -3 -1 -2 -2 -5
1 1 1 2 2 -0 -1 -2 -0 0 -2 -4 -4 -3 -3 -2 -2 -1 2 3 3 2 4 3 1 0 -2 -1 -0 1 1 -1 -1 -0 5 4 3 0 -1 -2 -2 -1 -1 -2 -3
-0 1 0 -1 0 1 0 -1 -1 -2 -2 -2 -3 -3 -4 -3 -4 -2 3 5 6 6 7 5 4 2 2 -0 -1 -0 -1 -1 -1 0 3 2 1 -1 -2 -2 -1 -2 -2 -2 -4
1 0 -0 -0 2 2 1 -0 -1 -2 -3 -4 -3 -3 -2 -3 -5 -1 4 5 6 7 7 7 6 4 3 2 1 4 1 -1 -1 -1 -1 2 -1 -4 -4 -1 -1 -2 -3 -3 -5
Wind_Speed
23 24 23 23 22 22 21 21 22 22 22 22 24 23 24 26 23 22 21 9 7 7 9 4 2 3 7 15 19 19 3 8 14 6 1 9 5 6 18 8 19 8 1 9 12
22 23 23 23 23 23 23 22 23 23 24 23 23 24 24 27 27 23 6 10 10 10 9 5 5 7 12 20 19 4 3 11 10 5 6 17 14 8 6 24 2 4 7 9 10
20 20 20 20 20 21 22 23 24 23 24 24 23 24 22 23 25 3 0 4 9 10 8 9 10 14 18 22 28 15 6 10 10 9 12 8 10 5 8 2 14 11 11 8 6
21 20 19 19 18 18 19 20 22 22 23 23 23 23 21 16 5 4 8 5 7 10 10 11 7 14 5 8 25 5 7 13 11 8 8 9 9 14 14 15 10 10 7 5 5
21 21 20 19 19 18 18 18 18 20 20 21 21 21 20 9 23 17 14 10 10 11 13 12 13 16 9 7 16 4 6 13 16 15 0 15 21 11 18 5 5 6 6 13 11
21 23 21 21 20 19 19 17 17 19 19 18 17 18 15 12 4 9 15 16 14 13 13 13 15 17 12 14 8 13 10 10 19 21 3 8 8 5 8 11 3 4 6 10 7
21 22 23 22 22 21 20 19 17 18 17 16 14 16 21 32 10 8 7 14 11 13 11 9 12 15 11 8 15 23 8 7 15 4 3 11 5 4 11 12 6 6 9 9 6
24 21 22 24 24 22 22 20 18 17 18 15 13 13 16 15 10 24 19 16 15 13 15 16 12 7 7 13 14 8 7 4 12 9 4 5 1 3 6 9 17 13 14 12 11
19 22 20 22 25 25 23 21 17 18 19 16 14 9 16 6 16 22 19 21 17 15 16 16 9 8 13 4 6 5 10 11 11 8 6 3 5 5 8 15 21 20 17 16 17
19 19 23 20 22 25 25 22 16 21 19 12 7 8 12 8 10 9 17 20 21 16 13 17 6 4 4 2 6 9 6 3 1 4 4 4 7 5 9 15 25 27 20 20 21
18 17 19 21 20 23 21 18 5 4 6 11 8 12 24 17 11 8 7 21 22 19 9 14 4 10 11 13 16 14 13 8 6 8 7 12 7 12 14 8 23 25 23 25 21
20 18 18 17 16 20 16 12 6 12 13 19 26 33 33 30 22 19 14 16 19 11 8 8 15 13 16 17 15 13 10 7 7 2 4 6 15 10 8 10 22 28 27 24 24
19 19 16 15 15 18 14 15 13 12 7 24 34 29 40 30 34 33 19 29 7 11 10 13 11 18 19 18 14 13 5 6 3 5 7 6 0 9 11 16 24 30 31 29 30
19 16 14 12 12 7 6 9 13 5 5 8 11 13 25 29 13 35 28 27 11 17 14 12 19 19 20 16 9 6 8 5 4 2 4 2 4 11 19 19 19 27 31 34 34
20 16 13 10 7 11 1 4 6 6 5 9 5 8 12 24 10 23 34 26 18 18 9 16 7 14 16 11 6 9 6 4 2 6 4 8 2 9 17 15 20 22 32 36 41
21 18 13 17 19 16 12 3 6 2 11 6 8 6 6 25 19 5 28 33 21 14 15 15 22 15 15 10 8 7 3 2 3 1 4 7 1 5 12 8 16 23 34 40 42
20 21 18 15 21 8 11 6 2 7 6 6 5 9 6 6 17 18 9 11 12 15 17 16 19 18 11 6 5 6 3 1 3 3 6 8 3 7 9 10 21 19 31 41 45
19 19 21 20 16 13 6 1 9 7 17 4 3 10 9 8 11 13 16 15 16 11 6 13 13 16 10 12 9 8 7 5 4 2 4 7 4 6 12 13 17 22 38 39 44
18 19 23 22 16 14 10 10 9 9 13 16 17 13 9 9 7 13 15 15 12 18 14 9 18 8 16 6 7 5 4 8 7 2 3 3 8 9 13 6 7 9 14 32 37
22 23 28 22 16 16 6 20 15 11 18 17 13 7 5 3 7 7 8 10 17 19 20 5 6 16 18 11 9 10 4 3 2 4 2 5 6 6 1 6 2 6 9 6 13
24 12 15 26 21 15 12 15 18 23 25 8 12 12 16 14 7 11 9 10 9 17 20 17 13 9 2 4 6 4 7 4 7 5 5 2 4 6 7 3 3 7 16 12 8
23 5 14 34 14 12 21 13 16 10 26 17 8 9 12 15 11 14 4 9 12 9 19 15 4 12 18 5 8 12 11 8 5 5 3 5 6 3 8 6 7 14 14 15 13
13 9 24 45 11 17 19 26 25 20 15 9 14 12 12 16 8 6 5 11 23 6 12 9 14 9 8 8 5 9 7 6 5 5 8 6 5 6 4 8 17 14 2 12 17
14 6 12 38 31 21 20 22 23 14 22 30 18 16 23 20 15 6 4 6 22 13 31 21 10 14 17 5 6 8 9 13 11 4 5 6 4 2 8 6 8 4 3 5 17
21 7 16 14 24 19 18 7 23 18 20 15 15 24 20 11 16 8 5 6 9 18 13 6 11 11 15 13 13 11 16 15 14 15 11 6 7 8 10 11 8 6 2 3 7
16 11 22 9 22 23 21 26 26 16 16 18 22 21 16 18 20 13 6 3 1 9 7 9 6 7 5 9 16 18 15 18 15 5 11 12 13 14 21 17 18 21 16 15 18
30 36 21 17 13 16 28 34 27 15 23 29 21 19 19 27 20 15 3 14 8 4 7 6 7 2 13 5 6 15 19 13 6 11 11 10 11 9 6 10 17 24 30 27 26
Wind_Direction
286 287 288 291 293 295 300 302 303 304 306 308 312 317 320 320 314 308 293 250 247 265 298 266 273 277 289 263 272 271 339 279 278 302 57 140 74 342 53 38 46 346 343 139 128
290 289 291 292 292 292 294 297 299 303 305 304 307 312 317 321 314 312 283 227 255 275 282 221 225 243 243 261 267 214 176 256 268 23 39 105 121 149 76 14 290 187 111 110 133
290 293 296 299 299 296 294 294 294 298 300 304 310 311 316 320 316 296 41 222 244 270 253 222 250 277 263 262 271 264 217 268 297 72 48 349 74 148 77 208 191 193 123 149 133
287 290 294 297 299 302 304 305 302 297 297 302 306 310 314 317 286 326 315 279 258 270 229 208 248 264 263 263 273 266 278 296 302 24 28 59 76 67 44 54 61 95 125 142 162
290 287 289 292 295 297 300 306 311 306 302 302 303 307 314 288 256 283 279 269 258 260 235 218 242 247 248 268 294 256 242 281 322 310 68 105 86 116 84 2 83 114 140 152 157
299 294 287 285 287 291 294 300 306 309 308 304 304 301 304 266 289 262 278 278 253 248 231 218 244 246 277 304 311 315 310 314 299 290 103 107 145 88 162 125 79 117 133 143 151
291 297 296 288 281 284 289 294 301 306 304 302 301 299 281 258 232 218 266 283 236 233 215 230 266 282 309 319 318 317 288 288 280 212 151 125 35 19 169 120 156 169 158 162 166
276 289 294 297 286 281 282 287 294 301 297 303 292 287 263 290 250 224 222 228 253 214 237 256 291 289 290 289 304 304 311 271 273 202 144 124 136 74 222 172 155 166 165 150 150
292 275 290 296 300 288 282 281 288 291 288 300 288 259 269 314 263 245 227 231 234 229 242 251 270 273 271 265 307 265 255 260 287 184 149 122 211 237 220 193 162 173 167 158 151
298 288 278 289 300 297 286 284 290 277 285 285 224 264 263 276 293 279 218 213 226 219 234 240 251 227 292 159 239 263 269 291 123 251 121 155 203 251 219 172 169 181 171 178 168
291 298 305 275 294 300 300 310 296 295 306 220 229 237 279 277 293 243 218 204 223 220 202 216 196 236 236 230 237 258 274 282 191 240 180 198 190 206 220 200 181 187 180 192 177
279 289 302 282 288 295 303 288 237 331 294 270 264 262 265 270 281 279 215 204 219 226 185 236 226 228 239 252 254 262 269 296 43 222 188 206 213 205 212 215 196 171 175 178 173
281 278 291 289 288 304 291 278 294 326 285 284 251 240 245 246 247 255 228 205 201 228 212 212 230 220 238 251 254 273 244 286 241 207 256 287 310 181 231 215 194 182 188 184 173
270 280 275 296 292 317 292 309 296 294 283 265 231 247 226 218 241 229 230 205 222 221 232 238 232 247 257 247 217 277 269 286 321 359 257 144 287 183 197 204 196 186 187 191 187
260 264 262 279 245 255 320 227 132 175 300 255 208 239 203 179 156 214 221 226 202 224 193 234 253 236 250 247 237 245 221 229 284 314 342 298 76 294 177 191 195 192 194 197 193
252 250 251 249 243 230 299 327 150 115 243 263 157 169 142 190 229 337 192 218 218 219 242 251 237 244 242 244 219 253 179 258 298 228 307 268 227 258 183 196 195 189 195 193 193
249 238 237 234 246 244 276 323 185 215 206 231 190 160 188 190 210 225 203 199 206 208 231 251 255 252 256 231 225 256 140 307 331 341 239 348 355 250 213 203 188 198 193 197 190
240 233 229 230 243 239 282 239 231 217 240 333 107 303 182 193 206 213 220 230 219 215 189 229 253 238 234 209 200 228 165 152 218 210 314 360 267 277 204 209 224 206 198 197 197
237 228 228 223 220 232 233 206 228 204 200 242 277 298 212 188 204 196 220 229 233 212 215 205 239 262 235 226 171 249 184 170 107 47 52 259 273 308 253 221 136 133 153 202 200
225 226 226 210 200 219 237 235 239 229 282 287 287 279 311 216 193 197 192 209 229 209 208 252 251 237 253 219 222 193 168 134 80 122 226 252 257 265 324 320 12 148 186 210 182
218 219 215 198 192 206 221 226 233 244 262 294 262 264 284 295 320 284 213 230 231 203 202 213 237 283 181 192 208 189 224 223 151 170 195 208 239 206 192 221 315 264 153 163 178
205 211 178 181 197 208 228 212 244 239 226 250 304 278 266 284 301 298 262 301 240 209 208 205 187 229 252 252 245 236 199 186 148 245 195 155 250 158 183 248 240 266 191 158 165
200 164 174 181 206 215 233 235 250 265 262 260 246 245 262 271 286 298 331 323 341 314 225 206 224 244 265 245 279 228 214 204 212 159 214 166 250 234 220 236 250 229 246 189 177
179 170 182 199 217 216 216 233 234 243 236 256 274 265 268 279 267 270 298 309 349 319 343 220 202 216 226 186 185 253 248 233 226 166 221 202 219 276 260 216 231 116 319 336 210
187 213 187 201 212 219 213 218 226 229 233 220 254 251 243 252 279 258 263 355 332 324 334 299 220 234 219 197 226 218 226 232 236 226 210 226 211 240 231 244 205 101 58 261 282
181 189 192 230 205 206 225 225 228 210 217 215 231 247 247 248 249 272 167 131 104 340 327 327 283 188 243 200 219 250 269 234 246 224 227 229 241 242 246 229 182 178 191 192 202
199 210 182 203 192 195 216 226 228 215 253 234 225 235 247 242 258 283 166 140 134 87 330 315 344 178 224 211 248 267 239 254 235 253 249 213 223 236 224 188 196 205 218 208 206
Height
1533 1533 1532 1530 1529 1528 1526 1525 1523 1521 1519 1516 1515 1513 1511 1506 1501 1499 1495 1496 1497 1498 1498 1498 1498 1499 1499 1497 1495 1495 1505 1506 1494 1484 1479 1478 1482 1484 1496 1500 1498 1505 1498 1496 1495
1530 1529 1528 1527 1526 1525 1523 1522 1520 1518 1517 1514 1512 1511 1509 1505 1498 1493 1491 1492 1495 1496 1497 1497 1497 1498 1497 1494 1494 1495 1504 1492 1482 1477 1478 1481 1482 1486 1491 1498 1504 1507 1500 1498 1498
1526 1525 1524 1523 1522 1521 1520 1518 1517 1515 1513 1512 1510 1508 1507 1504 1498 1491 1490 1491 1493 1494 1495 1495 1495 1497 1495 1492 1488 1488 1495 1481 1477 1477 1477 1477 1484 1487 1489 1498 1504 1503 1499 1500 1497
1523 1521 1521 1520 1519 1517 1516 1515 1513 1511 1510 1508 1507 1505 1504 1503 1501 1491 1490 1490 1491 1492 1493 1493 1493 1493 1492 1492 1484 1487 1480 1477 1476 1475 1475 1482 1486 1489 1499 1504 1505 1500 1499 1497 1495
1518 1517 1517 1516 1515 1514 1512 1512 1510 1508 1506 1505 1504 1502 1501 1500 1489 1489 1489 1489 1488 1489 1490 1491 1491 1491 1490 1485 1482 1478 1476 1476 1474 1474 1476 1479 1485 1489 1490 1500 1505 1499 1498 1496 1494
1515 1513 1513 1512 1511 1510 1509 1508 1507 1505 1503 1502 1501 1499 1499 1497 1485 1486 1487 1486 1486 1486 1487 1488 1487 1487 1486 1483 1482 1476 1474 1474 1473 1472 1473 1478 1486 1482 1489 1488 1496 1498 1499 1497 1494
1511 1511 1509 1507 1506 1506 1505 1505 1503 1502 1500 1499 1498 1495 1492 1481 1483 1483 1484 1483 1484 1483 1485 1485 1487 1486 1484 1483 1478 1477 1478 1472 1470 1469 1471 1474 1482 1486 1490 1488 1491 1497 1497 1498 1495
1508 1508 1506 1504 1502 1502 1502 1501 1500 1499 1496 1495 1494 1493 1480 1476 1476 1475 1479 1479 1482 1482 1483 1484 1486 1483 1483 1483 1480 1481 1477 1484 1467 1467 1472 1474 1493 1485 1484 1483 1487 1495 1496 1496 1497
1504 1504 1503 1501 1499 1498 1498 1497 1496 1495 1493 1492 1491 1491 1475 1472 1470 1469 1473 1475 1479 1480 1482 1483 1483 1483 1483 1486 1491 1481 1490 1480 1467 1464 1471 1474 1486 1472 1480 1485 1485 1491 1494 1496 1497
1501 1500 1500 1498 1497 1495 1494 1493 1493 1490 1489 1487 1487 1493 1472 1468 1467 1465 1467 1471 1476 1478 1481 1482 1481 1484 1483 1488 1501 1487 1481 1472 1472 1470 1469 1475 1477 1471 1476 1481 1483 1488 1488 1492 1494
1499 1498 1496 1495 1495 1493 1492 1491 1493 1488 1486 1481 1477 1472 1464 1465 1465 1464 1464 1469 1472 1475 1477 1477 1485 1487 1482 1476 1472 1471 1471 1471 1465 1459 1467 1468 1473 1469 1471 1478 1483 1485 1484 1487 1488
1495 1495 1495 1492 1492 1491 1492 1492 1491 1494 1480 1474 1471 1467 1463 1462 1467 1460 1464 1468 1468 1471 1473 1479 1478 1472 1469 1467 1467 1467 1469 1469 1460 1458 1461 1462 1469 1469 1471 1472 1474 1478 1481 1485 1486
1491 1492 1492 1491 1490 1489 1488 1488 1489 1488 1482 1460 1456 1452 1450 1458 1458 1457 1460 1462 1463 1469 1468 1474 1463 1463 1464 1464 1463 1461 1463 1464 1465 1458 1454 1459 1465 1472 1470 1469 1471 1473 1475 1479 1481
1487 1489 1490 1490 1491 1488 1486 1488 1488 1488 1486 1456 1439 1433 1437 1445 1447 1447 1451 1457 1461 1463 1465 1465 1458 1459 1460 1459 1457 1466 1454 1455 1458 1462 1477 1454 1477 1466 1458 1463 1466 1468 1471 1473 1478
1483 1485 1487 1490 1488 1486 1487 1485 1486 1488 1503 1434 1425 1423 1424 1434 1436 1438 1441 1450 1452 1455 1459 1457 1455 1455 1456 1452 1449 1457 1450 1452 1453 1463 1467 1463 1469 1458 1450 1461 1461 1461 1463 1465 1468
1479 1481 1484 1486 1485 1484 1485 1483 1484 1491 1473 1430 1418 1420 1425 1430 1432 1430 1435 1444 1446 1452 1451 1450 1446 1446 1446 1442 1443 1445 1449 1450 1454 1464 1488 1467 1470 1467 1454 1452 1453 1450 1454 1456 1460
1474 1477 1480 1482 1481 1486 1485 1484 1488 1478 1433 1426 1420 1420 1425 1428 1431 1432 1437 1440 1449 1458 1455 1449 1444 1439 1440 1444 1440 1445 1456 1481 1488 1496 1493 1464 1464 1455 1440 1433 1435 1437 1443 1446 1450
1469 1473 1475 1477 1480 1484 1485 1487 1478 1434 1435 1414 1414 1423 1424 1424 1426 1427 1434 1440 1437 1441 1451 1459 1459 1437 1432 1437 1445 1448 1454 1485 1496 1505 1486 1468 1469 1450 1428 1426 1428 1430 1434 1439 1444
1465 1467 1469 1473 1477 1482 1486 1480 1447 1437 1428 1426 1419 1428 1422 1419 1423 1424 1429 1430 1431 1433 1449 1450 1445 1428 1428 1428 1433 1443 1453 1449 1480 1485 1495 1478 1458 1443 1427 1431 1426 1428 1432 1436 1438
1458 1461 1462 1469 1475 1480 1479 1457 1438 1437 1434 1433 1437 1427 1424 1420 1422 1424 1426 1416 1425 1424 1429 1436 1447 1428 1425 1424 1426 1433 1436 1458 1466 1492 1505 1470 1470 1455 1437 1435 1429 1428 1428 1431 1434
1452 1454 1453 1464 1471 1475 1458 1434 1435 1440 1441 1438 1430 1433 1430 1429 1427 1423 1417 1412 1412 1416 1420 1429 1439 1437 1423 1427 1431 1434 1440 1442 1451 1461 1483 1484 1467 1440 1436 1433 1430 1429 1426 1429 1430
1443 1444 1448 1457 1462 1457 1437 1431 1434 1432 1440 1439 1435 1430 1430 1428 1430 1427 1424 1413 1406 1409 1416 1419 1430 1443 1431 1418 1418 1424 1431 1437 1463 1461 1462 1475 1467 1428 1430 1430 1426 1425 1425 1427 1429
1432 1437 1443 1446 1442 1434 1429 1430 1439 1440 1439 1436 1435 1432 1428 1428 1434 1420 1415 1411 1414 1413 1411 1414 1423 1444 1432 1423 1417 1422 1421 1425 1430 1442 1454 1474 1460 1425 1428 1428 1425 1427 1425 1426 1426
1425 1429 1432 1433 1425 1421 1427 1428 1433 1435 1436 1434 1431 1432 1431 1430 1423 1423 1417 1415 1411 1413 1409 1403 1410 1417 1429 1424 1424 1428 1422 1420 1427 1451 1448 1453 1437 1427 1426 1427 1422 1423 1423 1425 1424
1407 1407 1407 1407 1407 1423 1426 1420 1422 1426 1428 1428 1428 1425 1425 1430 1425 1421 1418 1417 1415 1414 1412 1412 1409 1407 1405 1409 1414 1415 1417 1416 1420 1420 1433 1434 1433 1424 1419 1418 1418 1418 1419 1419 1421
1391 1395 1399 1399 1409 1421 1421 1406 1408 1408 1421 1419 1421 1417 1426 1427 1420 1420 1419 1419 1423 1418 1423 1414 1412 1405 1410 1406 1406 1412 1410 1407 1409 1413 1416 1416 1418 1410 1408 1409 1411 1409 1416 1415 1418
1376 1383 1390 1393 1401 1411 1391 1381 1392 1420 1414 1415 1414 1419 1422 1403 1416 1414 1410 1411 1416 1426 1433 1429 1423 1413 1414 1411 1413 1425 1404 1407 1405 1402 1409 1419 1410 1403 1403 1402 1403 1405 1405 1407 1408